< < Back
Terminal Aerodrome Forecast


Current Version              Previous Versions:   1  2  3  4  5  6  7  8  9  

Terminal Aerodrome Forecast

792
FTUS42 KFFC 120818 AAA
TAFPDK
TAF AMD
KPDK 120818Z 1208/1306 00000KT P6SM SCT070 BKN150
     FM121100 00000KT P6SM BKN040
     FM121500 VRB03KT P6SM BKN025
     FM121800 27006KT P6SM BKN035
     FM122100 28010G18KT P6SM SCT040
     FM130400 31011G20KT P6SM FEW050=

Latest METAR

606
SAUS70 KWBC 121200 RRL
MTRPDK
METAR KPDK 121153Z 00000KT 10SM OVC049 04/M03 A3013 RMK AO2 SLP213
T00391033 10039 21011 58000


USA.gov is the U.S. government's official web portal to all federal, state and local government web resources and services.